Starlink 6072

operational
NORAD ID: 56806 Int'l Des: 2023-078 Owner: SPXS Country: US Constellation: starlink
LEOCIRCULAR

关于 Starlink 6072

正在加载描述...

实时位置

正在加载3D地球...

即将过境

高度历史

Altitude vs Time

uPlot chart will show altitude changes over time

两行轨道根数

1 56806U 23078AR 26062.10273970 .00001970 00000-0 17289-3 0 9997
2 56806 69.9993 320.9100 0002650 272.7128 87.3728 14.98324255152667
Epoch: Mar 3, 2026 • Age: 9 hours

当前状态

高度 580.5 km
速度 7.57 km/s
星下点 -26.52°S, 17.46°E
发射日期 May 31, 2023
运行时间 2.7 years
类型 internet

技术详情

分类 Payload
质量 305.00 kg
干质量 290.00 kg
总质量 305.00 kg
长度 0.20 m
直径 2.80 m
跨度 9.00 m
形状 Box + pan
制造商 SPXS
平台类型 Starlink
阶段状态 In Orbit
所有者/国家 SPXS/US

大型星座

Loading constellations...